sat.trackr.live / text

‹ back to catalog

YUNHAI-3 01

NORAD 54235 · 2022-151A

PAYLOAD ACTIVE UNKNOWN

§ Identity

Operator
Country
PRC
Launch date
2022-11-11
Launch site
TAISC
Launch vehicle
Mass (kg)
RCS (m²)

External: N2YO · Heavens-Above · Gunter

§ Orbital elements

Epoch: 2026-05-25T04:52:17.255136Z

Period
101.88 min
Inclination
98.8171°
Eccentricity
0.0001686
Mean motion
14.13366304 rev/d
Perigee alt
846.7 km
Apogee alt
849.1 km
Semi-major
7,226.0 km
B*
1.9281e-5
RAAN
152.9397°
Arg perigee
133.2922°
Mean anomaly
226.8391°
Rev number
18,169

§ Raw data

YUNHAI-3 011 54235U 22151A   26145.20297749 -.00000008  00000+0  19281-4 0  99912 54235  98.8171 152.9397 0001686 133.2922 226.8391 14.13366304181691

JSON: /api/v1/satellites/54235 · /tle

For live sub-satellite position, see the globe view (requires WebGL).

§ Visibility from observer

Set your observer location to see the next 7 days of passes ≥ 10°. The values pass through the URL so the page stays shareable.

No JS? Fill the form by hand. The geolocation button needs JavaScript.